CAPE
0 2 1 0 0 0 0 6 5 8 8 8 13 8 1 1 1 6 1 5 1 1 0 0 0 0 0 0 0 0 0 0 2 0 0 0 21 62 50 51 42 38 0 0 0 0 0 20 0 52 208 177 268 438
0 0 0 0 0 0 4 9 6 2 1 9 9 11 0 3 2 0 8 11 7 2 0 0 0 0 0 0 0 0 0 21 184 27 0 0 3 257 193 13 57 4 42 0 16 18 59 146 223 59 0 27 654 1079
1 0 0 1 3 3 7 9 2 1 0 11 20 26 17 12 4 0 11 8 5 2 0 0 0 0 0 0 0 0 0 0 0 27 21 398 748 828 492 36 0 4 344 181 125 284 93 327 108 225 194 798 1031 1047
0 1 1 0 3 5 8 3 0 2 0 9 15 17 22 21 12 0 15 23 12 9 0 0 0 0 0 0 0 0 0 0 0 0 0 5 255 481 120 0 4 18 3 155 151 7 69 643 589 781 947 871 923 1077
1 2 2 1 1 3 6 2 4 0 1 6 9 14 10 13 22 4 8 20 28 6 2 0 0 0 0 0 0 0 0 0 0 0 0 0 2 147 297 368 106 0 13 4 284 0 0 646 636 819 910 1020 1038 1044
2 2 3 3 3 4 5 3 2 3 4 21 18 8 5 2 8 8 2 1 12 19 13 0 0 0 0 0 0 0 0 0 0 0 0 0 0 126 479 431 366 2 0 0 25 238 0 837 918 920 1122 1117 1100 1280
3 2 3 5 5 6 8 6 8 17 10 6 7 9 1 3 6 0 0 7 0 21 1 2 0 0 0 0 0 0 0 0 0 0 0 0 0 275 363 431 780 81 0 69 715 403 474 1025 916 1053 1143 1267 1280 1630
1 10 19 11 5 1 4 12 11 2 21 10 7 19 12 13 4 1 0 2 3 16 13 4 0 6 0 0 0 0 0 0 0 0 0 0 0 6 388 447 560 598 1105 114 208 527 352 920 1120 1301 1431 1443 1477 1560
7 1 5 8 14 9 5 14 9 1 4 13 31 17 0 1 0 4 1 0 20 21 26 3 0 48 0 0 0 0 0 0 0 0 0 0 0 0 121 436 657 1238 1230 1307 1178 1314 927 1060 1315 1335 1348 1348 1434 1523
2 1 8 1 5 11 9 1 0 0 20 16 23 0 0 0 2 3 0 9 22 16 0 1 0 0 3 39 11 0 12 21 0 0 0 0 0 4 176 387 897 1048 1114 1217 1188 930 1059 1273 1317 1307 1257 1228 1290 1352
7 12 21 3 0 0 0 0 21 18 8 8 2 2 29 2 15 14 12 10 18 18 4 0 0 0 0 33 56 81 31 5 0 0 0 0 0 0 69 431 903 950 1053 1189 1030 1052 1161 1190 1216 1158 1148 1203 1258 1302
0 1 1 1 0 0 0 10 6 6 16 0 10 7 7 9 9 5 6 10 11 4 0 0 0 0 0 7 163 75 51 37 9 0 0 0 0 30 25 250 847 1006 1062 1250 1143 1083 1146 1052 1022 1003 1055 1121 1141 1082
0 0 0 0 0 5 8 1 5 10 9 24 8 5 1 14 18 7 5 5 4 0 0 3 0 0 0 42 299 131 7 28 5 0 0 0 0 1 492 490 1037 1022 560 517 577 636 794 653 843 747 814 771 612 455
0 1 0 0 5 8 2 0 0 5 0 0 3 0 2 12 2 0 0 0 0 2 16 55 11 0 0 30 146 73 17 50 34 12 21 45 78 189 1797 1473 1042 696 387 100 130 0 9 581 470 381 321 376 396 562
0 0 2 0 7 1 0 0 2 4 1 1 15 0 0 0 22 15 32 22 39 56 63 22 55 31 40 22 93 92 79 57 53 25 11 3 1 1413 1811 1320 1260 752 300 72 34 0 12 129 281 286 303 430 566 559
1 2 0 3 0 2 2 0 3 6 5 7 18 2 47 55 57 101 2 3 43 8 48 8 76 70 38 36 7 16 25 25 16 538 857 1631 1349 1427 1411 1226 789 496 21 0 0 21 69 141 214 364 438 433 535 514
2 0 16 10 0 0 1 0 24 0 11 12 8 3 1 2 4 72 156 111 104 26 59 132 34 44 61 17 10 28 34 168 87 8 396 1051 1286 1193 1217 1236 848 219 82 43 53 20 29 283 310 533 464 474 379 407
0 6 14 3 5 3 12 4 18 14 9 0 0 0 19 24 98 236 236 129 3 0 133 68 133 45 42 49 34 68 566 395 269 10 310 1252 1366 1312 1122 848 636 641 434 279 161 370 284 324 490 527 461 586 336 176
1 1 7 8 14 3 15 15 15 1 3 3 0 0 13 5 12 102 243 334 364 413 268 81 40 65 107 268 326 361 601 463 317 455 767 1256 1662 1252 1052 688 629 559 523 459 404 476 479 344 374 347 240 467 123 27
2 3 4 8 13 4 0 0 0 2 7 8 9 16 31 11 52 139 142 180 194 203 49 11 68 179 315 383 269 274 204 327 144 116 512 1382 1708 1071 751 949 732 762 661 494 291 270 142 129 133 183 78 189 194 98
1 1 3 15 10 9 0 0 2 0 2 3 0 6 41 44 39 81 103 121 196 119 93 184 265 246 193 104 25 64 37 26 20 17 88 938 1406 1035 739 782 873 558 616 417 269 255 137 67 69 37 77 171 168 4
2 6 8 27 7 5 0 1 0 2 5 0 1 2 3 7 4 2 4 52 102 128 108 74 26 9 5 0 0 35 21 73 12 1 0 137 553 554 640 790 701 526 449 213 70 75 100 112 110 61 34 8 0 0
0 1 5 11 4 3 1 0 1 0 2 0 0 0 1 2 2 1 8 3 4 5 4 1 0 0 3 3 2 0 0 0 1 57 8 73 359 393 521 324 614 461 229 67 17 96 104 2 4 13 11 7 1 3
1 0 0 0 1 0 1 3 1 7 10 0 0 1 0 1 0 0 0 0 0 2 3 1 6 0 0 0 2 8 0 0 26 111 134 102 17 49 8 20 50 40 25 63 5 61 68 60 2 7 8 7 10 8
1 1 10 2 2 2 2 5 13 11 5 7 5 2 1 0 0 0 1 1 0 2 1 4 6 7 19 26 7 6 5 69 92 93 32 115 61 35 20 45 50 114 33 72 104 56 5 0 1 7 7 8 4 5
1 63 41 37 34 21 14 24 5 0 1 4 1 2 5 1 1 2 0 2 0 0 1 3 12 3 49 64 40 32 102 94 55 14 30 17 62 50 42 42 26 40 57 55 27 6 2 7 7 10 12 8 4 23
22 34 31 28 14 28 25 11 28 12 5 1 0 0 4 4 6 0 0 0 0 0 0 0 5 29 6 19 49 56 42 53 34 7 14 6 8 8 14 24 14 2 2 9 8 6 10 18 33 26 44 25 20 26
11 28 9 19 2 1 0 6 4 9 18 25 18 11 8 5 0 0 0 0 0 0 0 0 0 35 28 13 18 7 1 5 5 2 2 6 4 3 2 0 0 0 0 0 6 11 18 30 23 41 22 13 18 22
19 34 8 11 8 0 0 4 5 6 9 7 2 0 0 0 0 0 0 0 0 0 0 6 2 5 8 2 0 0 0 0 0 0 0 0 0 0 0 0 0 0 3 0 0 0 0 0 12 32 25 21 24 47
11 29 6 0 2 10 13 13 10 3 3 1 1 3 6 2 0 0 0 0 5 4 2 6 7 4 4 0 0 0 0 0 0 0 1 0 0 0 0 0 0 0 0 2 0 0 0 0 0 0 0 0 10 32
14 19 24 26 12 32 29 30 13 9 14 2 1 0 0 0 3 5 0 0 0 0 0 0 4 6 6 3 0 0 0 0 0 0 0 0 0 0 0 0 0 0 0 0 0 0 2 2 0 1 3 6 9 11
24 24 16 14 16 23 30 30 28 23 15 4 13 0 4 12 8 1 0 14 18 0 0 0 0 0 0 0 0 0 0 0 0 0 0 0 0 0 0 0 0 0 0 0 0 0 0 0 0 0 0 2 24 21
7 0 10 18 28 23 24 17 16 27 29 26 29 22 20 9 2 0 0 2 0 0 1 0 0 0 0 0 0 0 0 0 0 0 0 0 0 0 0 0 0 0 0 0 0 0 0 0 0 0 0 0 1 6
CIN
-1 -1 -1 0 0 -1 0 0 -2 -5 -6 -2 0 0 0 -3 -2 -2 -1 -2 -2 -2 0 0 0 0 0 0 0 0 0 0 -94 0 0 0 -59 -9 -50 -61 -11 -16 0 0 0 0 0 -116 0 -62 -26 -101 -81 -71
-1 -2 0 0 0 0 0 -1 -2 -8 -7 -1 0 0 -1 -12 -9 -1 -1 -2 -2 -1 0 0 0 0 0 0 0 0 0 -97 -31 -50 0 0 -64 -8 -55 -30 -49 -145 -12 0 -5 -10 -40 -38 -13 -57 0 -131 -44 -53
-2 0 0 -2 -2 -2 -2 -1 0 0 -4 -1 0 0 -4 -11 -7 -5 -1 -6 -4 0 0 0 0 0 0 0 0 0 0 0 -2 -134 -240 -69 -18 -26 -17 -106 -22 -168 -210 -199 -10 -52 -49 -81 -191 -34 -59 -53 -37 -28
0 0 -1 -1 -1 -1 0 -1 0 0 -2 -2 0 -2 -5 -9 -8 -2 -1 -1 -5 0 0 0 0 0 0 0 0 0 0 0 0 0 0 -77 -72 -8 -114 0 -130 -304 -251 -191 -127 -92 -52 -9 -17 -5 -19 -41 -26 -25
0 0 0 0 0 0 0 0 0 0 0 -4 -12 -6 -11 -7 -5 -4 -2 -1 -2 -2 -2 0 0 0 0 0 0 0 0 0 0 0 0 0 -40 -50 -44 -35 -184 0 -552 -54 -15 0 0 -15 -24 -16 -24 -22 -25 -37
0 0 0 0 -5 -5 0 0 0 0 -4 0 -4 -12 -14 -9 -6 -2 0 -15 -10 -1 -1 0 0 0 0 0 0 0 0 0 0 0 0 0 0 -19 -14 -2 -41 -13 0 0 -242 -30 0 -12 -21 -22 -35 -26 -25 -24
-4 -7 -2 0 -1 -1 -1 -2 0 0 -1 -1 -3 -5 -9 -9 -5 -1 0 -5 0 -5 -3 -2 0 0 0 0 0 0 0 0 0 0 0 0 0 -9 -3 -22 -43 -8 0 -49 -57 -28 -31 -4 -19 -26 -32 -42 -42 -57
-8 -7 -9 -10 -18 -6 0 0 -1 -1 0 -3 -8 -2 -3 -3 -2 0 -1 -7 -10 -2 -1 -1 0 -3 0 0 0 0 0 0 0 0 0 0 0 -4 -5 -34 -59 -59 -28 -128 -106 -168 -64 -25 -5 -32 -64 -73 -98 -120
-30 -15 -27 -26 -20 -17 -10 -4 -7 -10 -12 -8 -1 0 -1 -6 -1 -2 -2 0 -8 -3 0 0 0 -2 0 0 0 0 0 0 0 0 0 0 0 0 -122 -53 -41 -9 -42 -45 -31 -10 -2 -8 -25 -55 -51 -87 -114 -138
-48 -49 -30 -31 -19 -19 -24 -29 0 0 -1 -1 -1 -3 0 0 -31 -14 0 0 -1 -1 0 -1 0 0 -5 -3 -4 0 -2 -3 0 0 0 0 0 -40 -75 -39 -2 -48 -73 -60 -22 -13 -5 -19 -35 -34 -33 -79 -118 -148
-15 -23 -23 -27 0 0 0 -2 -18 -5 -5 -1 -3 -4 -1 -4 -3 -3 0 0 -1 0 0 0 0 0 0 -6 -10 -3 -8 -2 0 0 0 0 0 0 -217 -62 -7 -58 -64 -50 -29 -6 -10 -10 -15 -17 -38 -84 -141 -182
0 -28 -13 -17 0 0 0 -28 -34 -14 -3 -4 -5 -6 -3 -2 -1 0 0 -1 -1 -2 0 0 0 0 0 -9 -6 -8 -4 -2 -2 0 0 0 0 -213 -258 -113 -12 -55 -57 -44 -29 -6 -9 -4 -6 -33 -107 -134 -140 -194
0 0 0 0 0 -13 -13 -15 -11 -8 -10 -12 -2 -2 0 -2 -1 -1 0 0 -1 0 0 -2 0 0 0 -3 -1 -12 -13 -2 -2 0 0 0 0 -4 -31 -31 -7 -25 -146 -209 -171 -183 -80 -18 -36 -112 -136 -158 -238 -266
-22 0 0 -2 -4 -11 -2 0 -1 -13 -1 -3 -1 0 0 -1 -5 0 -1 0 0 -9 -6 -4 -3 0 -1 -2 -3 -6 -18 -7 -2 -4 -2 -57 -51 -99 -6 -16 -28 -118 -198 -357 -378 0 -37 -8 -125 -183 -178 -227 -250 -225
0 -6 0 0 0 -4 0 -8 -23 -6 -3 0 0 0 0 0 -26 -18 -7 -7 -3 -8 -14 -40 -13 -2 -3 -11 -4 -11 -3 -2 -1 -4 -9 -1 -2 -13 -14 -20 -16 -139 -223 -378 -459 0 -88 -32 -93 -125 -188 -214 -167 -166
0 0 0 -6 0 -2 -4 -5 -2 -4 -11 -3 0 -1 -1 -2 -3 -1 -44 -17 -34 -60 -33 -53 -7 -5 -2 -6 -2 -2 -1 -2 -2 -38 -15 -6 -13 -16 -8 -18 -111 -216 -265 0 0 -291 -106 -6 -89 -124 -110 -94 -102 -122
0 0 -8 -16 0 0 -10 -1 -1 -1 -1 0 -1 -18 -22 -2 -9 -2 -5 -9 -42 -29 -9 -3 -8 -15 -3 -2 -3 -2 -2 -16 -59 -98 -70 -22 -8 -23 -13 -18 -40 -156 -267 -275 -298 -298 -294 -3 -31 -33 -22 -20 -47 -73
0 -4 -5 -13 -9 -1 0 -1 -1 -1 0 0 0 -3 -1 -6 -3 -1 -11 -12 -1 0 -3 -9 -8 -5 -1 -2 -3 0 -4 -26 -50 -30 -69 -32 -11 -8 -5 -19 -61 -66 -101 -111 -134 -66 -93 -91 -40 -27 -1 -4 -17 -95
0 0 -5 0 -1 -3 0 -1 -1 0 -1 -2 0 0 -3 -3 -10 -6 -9 -9 -11 -8 -9 -15 -20 -11 -4 -2 -6 -8 -4 -17 -9 -21 -43 -11 -2 -6 -5 -14 -34 -50 -48 -49 -58 -53 -61 -82 -76 -49 -24 -2 -37 -112
0 0 0 0 -2 -5 0 0 0 -1 -1 -1 -2 -1 -1 -1 -8 -17 -19 -27 -17 -8 -16 -9 -6 -6 -6 -1 -21 -30 -43 -44 -87 -82 -50 -6 -1 -9 -12 -7 -17 -18 -27 -36 -42 -60 -75 -59 -30 -24 -25 -17 -34 -66
0 0 -1 0 0 -1 0 -1 0 0 -1 0 0 0 0 -3 -3 -2 -1 -6 -5 -7 -7 -1 -2 -4 -26 -35 -84 -66 -90 -83 -69 -100 -96 -4 0 -14 -4 -1 -14 -8 -1 -1 -2 -14 -44 -44 -77 -74 -87 -28 -51 -74
0 0 -1 -1 -1 -2 0 -5 0 -1 -1 0 -1 0 0 -2 0 -2 -1 -1 0 -4 -4 -13 -27 -67 -52 0 0 -18 -49 -25 -87 -34 -21 -38 -3 -7 -4 -2 -2 -7 -32 -72 -101 -70 -14 -15 -17 -26 -44 -71 -2 0
0 -4 -4 -3 -1 0 0 0 0 0 0 -1 0 0 0 0 0 0 0 -1 0 0 0 0 0 0 0 0 0 0 0 0 -38 -9 -20 -16 -12 -3 -6 -19 -4 -10 -52 -122 -71 -9 -11 -61 -57 -54 -29 -44 -21 -43
0 0 0 0 0 0 0 -3 0 0 0 -1 0 0 0 0 0 0 0 0 0 0 0 0 0 0 0 0 0 -15 0 0 -47 -22 -21 -10 -39 -29 -65 -104 -58 -79 -68 -71 -74 -14 -8 -3 -11 -9 -17 -19 -6 -6
0 -2 -10 -40 0 0 -1 0 -1 -1 -1 0 0 0 0 0 0 0 0 0 0 -1 -2 -33 -22 -3 -2 -7 -55 -37 -2 -4 -1 -2 -6 -9 -14 -32 -42 -62 -48 -34 -50 -8 -5 -11 -5 0 -7 -2 -10 -11 -11 -20
-19 -4 -4 -2 -4 -15 -6 -1 -1 0 -6 -1 -5 -7 -5 -2 -1 0 -1 0 0 0 0 -8 -23 -15 -4 -11 -5 -18 -8 -15 -29 -34 -13 -13 -6 -30 -24 -32 -14 -31 -23 -21 -42 -42 -6 -8 -11 -11 -12 -20 -21 -5
-5 -2 -4 -9 -5 -4 -2 -6 -1 -1 -2 -6 0 0 0 0 -1 -2 0 0 0 0 0 0 -63 -20 -25 -9 -8 -9 -14 -6 -10 -31 -22 -28 -39 -62 -49 -50 -18 -4 -3 -7 -7 -11 -13 -46 -14 -3 -2 -12 -14 -15
-11 -4 -7 -4 -12 -10 -1 -1 -2 -2 -2 -3 -5 -3 0 0 0 0 0 0 0 0 0 0 0 -29 -9 -4 -12 -5 -1 -4 -2 -2 -3 -3 -2 -2 -2 0 0 0 0 -1 -18 -20 -18 -8 -9 -5 -9 -17 -11 -7
-2 -4 -12 -1 -1 -1 -4 -3 -2 -1 -5 -1 -4 0 0 0 0 0 0 0 0 0 0 -13 -4 -2 -1 -2 -1 0 0 0 -1 0 0 0 0 0 0 0 0 0 -3 0 0 0 0 0 -6 -2 -4 -2 -3 -5
-5 -6 -23 -10 -18 -5 -4 -8 -2 -7 -7 -2 -1 -1 -1 -1 0 0 0 0 -2 -2 -2 -3 -4 -4 -3 -2 0 0 0 0 0 0 -1 0 0 0 0 0 0 0 0 -1 0 0 0 0 0 0 0 0 -2 -2
-13 -4 -2 -4 -6 -7 -16 -4 -8 -11 -2 -10 -9 0 0 0 -5 -10 0 0 0 0 0 -1 -3 -2 -3 -4 -1 0 0 0 0 0 0 0 0 0 0 0 0 0 0 0 0 0 -3 -4 0 -2 -3 -2 -2 -6
-3 -2 -3 -2 -3 -4 -4 -4 -3 -5 -8 -5 -2 -2 -12 -5 -2 -2 0 -3 -3 0 0 0 0 0 0 0 0 0 0 0 0 0 0 0 0 0 0 0 0 0 0 0 0 0 0 0 0 0 0 -3 -2 -4
-3 0 -2 -2 -2 -2 -2 -4 -3 -4 -2 -3 -4 -5 -3 -4 -2 0 0 -3 0 0 -2 0 0 0 0 0 0 0 0 0 0 0 0 0 0 0 0 0 0 0 0 0 0 0 0 0 0 0 0 0 -3 -5
Wind_Speed
30 29 29 31 32 33 34 34 33 32 32 30 29 28 27 27 27 25 28 26 27 34 38 36 29 29 28 26 26 23 24 25 30 33 32 36 39 39 25 38 30 28 15 28 27 28 39 16 8 23 11 6 6 11
27 28 29 30 31 32 34 34 31 31 30 29 29 28 27 26 26 25 28 26 27 31 36 35 37 36 34 33 31 27 28 24 21 26 30 33 41 33 26 31 26 35 34 31 27 29 16 14 5 8 8 8 7 12
27 28 30 31 31 32 32 31 30 30 30 30 29 28 28 28 26 24 29 27 25 31 38 40 40 39 39 38 33 31 29 26 26 23 25 25 29 21 22 26 29 37 26 31 22 16 23 6 35 7 6 9 7 7
26 26 29 32 31 31 31 29 29 28 29 29 28 29 28 27 26 24 27 26 25 26 30 22 23 30 28 30 33 36 40 34 30 28 30 32 34 26 21 21 26 28 33 30 22 17 19 10 7 10 6 5 8 8
23 22 23 30 30 33 30 29 28 27 29 29 28 29 28 25 24 24 26 27 28 26 27 33 38 35 31 29 30 32 36 36 33 34 35 38 35 34 31 19 21 25 39 35 27 14 23 17 4 3 3 7 9 10
14 12 13 22 19 31 30 29 29 28 29 29 25 26 23 21 16 17 23 25 26 25 26 28 24 30 30 26 28 31 31 35 36 36 36 37 37 30 29 30 18 15 31 45 29 5 49 2 1 2 2 6 10 9
8 9 3 14 22 16 31 31 30 29 27 23 21 19 16 16 13 18 19 20 20 17 23 27 27 25 25 23 26 27 28 32 34 39 42 41 38 29 36 37 22 22 16 24 24 8 12 4 3 2 4 6 9 10
12 11 12 8 14 24 25 17 22 23 18 15 15 13 10 8 15 21 19 18 16 17 21 25 25 23 15 20 24 24 28 28 34 37 37 40 39 37 38 35 39 36 25 23 23 16 5 3 5 3 5 6 6 7
12 13 10 8 13 13 17 12 16 13 13 11 8 6 11 13 15 16 15 18 19 20 23 24 26 19 15 20 19 20 25 29 28 36 40 34 40 40 34 37 34 28 25 23 18 18 13 6 4 4 6 7 6 6
11 8 9 11 8 10 11 12 13 13 12 2 8 12 15 15 13 5 15 19 21 21 24 28 28 28 21 21 19 18 23 27 32 36 32 44 49 43 43 39 30 30 30 31 21 19 10 9 8 8 7 5 5 5
7 7 5 6 9 11 11 11 18 4 4 10 12 14 13 2 9 15 18 20 21 25 24 28 36 31 27 25 26 19 23 26 35 34 34 42 47 47 44 44 33 31 31 29 27 15 13 13 12 10 7 5 3 3
9 8 10 8 10 12 14 14 15 3 9 12 11 11 8 13 15 18 20 20 22 25 23 24 28 30 27 20 24 23 24 25 30 28 41 47 41 37 44 46 34 29 31 30 27 17 17 15 13 9 6 3 3 4
13 12 13 13 16 18 21 23 16 5 3 12 15 13 14 14 19 21 22 22 22 20 22 21 23 22 28 24 24 22 24 27 24 31 40 42 37 39 36 40 30 24 22 20 21 15 24 15 9 7 4 2 2 2
18 18 12 16 20 22 23 23 21 23 18 17 18 18 18 17 19 21 25 25 29 29 24 22 20 19 23 25 25 25 26 24 27 32 37 30 35 34 24 24 27 24 19 17 18 13 27 14 5 6 4 1 2 3
9 13 13 16 18 21 23 23 23 21 21 22 22 22 27 28 27 23 25 23 23 19 23 24 26 19 24 23 25 24 23 25 25 31 31 31 25 27 25 22 20 21 21 17 16 18 25 15 4 3 4 4 3 3
6 8 11 13 16 21 23 23 21 20 21 21 23 23 22 25 27 25 24 28 22 24 21 25 23 22 22 24 26 26 26 25 29 18 22 18 19 19 22 14 14 15 15 13 11 11 22 21 10 6 4 4 3 4
7 9 10 15 16 19 21 19 18 19 19 20 21 24 26 25 27 27 22 25 23 24 26 23 24 21 21 30 32 31 35 25 24 24 23 23 25 20 19 14 14 14 13 12 12 10 11 15 9 6 4 4 4 5
8 10 13 13 14 14 17 18 18 18 19 21 22 22 23 24 25 25 23 20 31 36 34 25 23 28 27 26 32 30 22 23 16 23 27 26 23 22 17 14 13 14 13 12 10 8 7 5 3 5 5 3 5 7
6 9 12 18 19 15 16 16 20 19 21 22 23 25 25 25 26 25 24 23 22 24 22 22 26 28 32 24 25 25 25 26 26 24 24 26 26 23 18 16 15 15 14 11 8 6 4 3 2 4 7 4 5 7
6 9 14 20 20 19 17 18 20 20 19 20 21 21 22 25 24 23 22 21 22 24 24 26 26 24 24 25 25 27 27 27 27 28 28 29 27 24 17 17 17 14 12 9 6 5 5 4 4 6 8 7 7 9
16 15 19 21 19 20 17 17 18 17 16 17 18 18 20 20 22 22 22 21 22 23 24 24 25 24 24 25 27 30 32 30 30 31 31 32 30 22 30 17 16 14 11 8 5 3 1 3 5 2 3 6 9 9
16 20 20 20 18 17 16 19 18 17 17 17 16 18 18 19 20 20 21 22 22 22 22 24 26 27 28 29 30 31 34 37 36 36 36 34 38 19 20 18 16 12 12 8 7 10 10 5 5 5 4 5 6 7
19 17 18 18 18 17 14 17 17 18 17 17 17 17 18 19 18 18 20 20 21 22 23 26 28 28 30 31 32 33 34 37 36 34 36 40 28 19 15 17 17 13 8 13 20 7 5 5 7 7 6 6 5 6
17 17 15 15 15 16 17 18 16 15 15 17 18 18 18 18 18 18 18 18 19 20 21 23 23 24 25 25 24 23 23 25 30 33 34 29 20 16 14 11 10 13 13 9 7 2 3 6 4 6 6 6 7 9
14 13 14 14 15 15 15 16 17 17 16 18 18 16 16 17 17 16 16 16 17 17 17 17 17 16 15 12 21 20 19 7 21 23 25 10 5 10 9 5 11 14 8 10 7 8 9 10 9 8 7 8 8 9
12 14 10 5 11 12 8 8 14 18 18 14 11 14 15 15 15 15 16 15 15 15 14 13 11 7 3 4 4 5 7 2 3 6 3 3 3 1 3 4 5 7 9 9 9 8 7 8 8 8 9 8 7 7
11 10 11 11 11 10 13 11 10 12 16 17 15 13 13 13 12 12 11 13 14 15 14 14 15 12 8 8 4 1 4 6 12 7 3 4 6 6 5 5 6 8 9 8 8 8 8 9 8 8 7 8 6 4
14 12 8 22 20 15 15 13 12 11 10 10 15 11 10 10 12 14 13 15 14 12 13 14 20 20 7 5 8 13 14 12 11 12 11 12 13 12 11 10 10 11 11 11 10 9 9 10 8 9 4 5 5 8
18 24 25 24 23 23 20 13 11 15 9 14 22 12 8 12 20 16 17 19 16 15 12 11 15 11 11 13 13 10 12 15 15 14 13 13 12 13 13 12 11 11 11 11 12 14 14 14 12 10 7 8 8 4
20 21 24 24 21 18 22 24 22 25 24 26 26 24 21 16 5 13 6 7 7 10 10 11 14 15 15 14 13 13 14 16 16 16 14 13 13 14 14 14 14 14 14 13 11 9 11 14 14 15 14 15 16 13
17 18 19 21 22 23 23 21 23 22 21 20 19 19 18 17 10 8 15 16 9 12 15 14 15 14 14 14 15 14 15 17 16 16 17 17 17 16 18 18 18 19 19 19 19 18 13 10 11 10 10 10 11 13
15 16 17 17 18 20 22 20 20 20 20 19 19 19 19 16 14 13 12 11 15 16 14 15 16 16 17 16 15 16 16 17 18 18 18 18 19 20 21 21 20 21 21 21 20 18 17 16 17 18 19 19 16 17
9 12 12 12 16 12 8 8 10 14 16 16 15 16 16 16 15 16 16 17 16 16 16 17 17 17 16 16 16 16 17 17 17 18 19 19 20 22 22 23 23 23 23 23 22 22 21 19 20 20 21 22 22 23
Wind_Direction
314 313 310 309 306 303 301 300 299 299 296 293 289 288 285 283 284 283 276 283 278 268 266 268 274 272 271 268 264 287 271 266 259 258 256 250 243 241 275 237 252 252 178 192 195 257 236 306 236 208 285 313 346 315
316 315 312 309 306 302 299 297 297 297 295 291 289 285 283 282 284 281 274 281 279 271 265 273 267 265 262 263 267 268 271 268 277 263 257 255 241 261 271 260 257 245 220 202 262 247 268 339 34 65 73 59 48 289
317 315 312 308 305 301 299 296 294 291 289 287 286 283 280 276 277 277 270 280 280 274 272 265 261 260 257 256 259 259 260 271 269 275 267 262 255 273 277 264 251 231 258 264 261 286 269 323 165 71 70 69 25 328
320 318 312 306 303 299 295 295 292 290 285 283 283 279 277 275 273 273 270 272 275 276 269 281 265 264 263 257 253 254 253 265 269 265 259 256 255 268 285 278 256 236 265 260 261 263 279 290 37 83 72 53 58 53
329 329 323 307 304 291 291 289 288 288 279 279 280 275 274 275 273 271 271 269 268 268 269 268 272 264 264 260 254 254 254 254 258 255 254 253 261 267 272 290 279 245 249 251 265 286 263 272 297 52 107 99 88 81
336 333 330 322 320 286 282 280 281 278 277 275 280 276 275 272 273 274 272 269 265 269 271 266 279 263 265 255 255 252 254 252 253 253 256 255 259 269 264 262 270 204 207 240 256 26 189 157 134 169 142 106 98 83
353 354 331 332 314 314 251 273 272 273 274 281 284 282 279 270 261 263 270 281 276 272 269 269 269 265 260 256 252 254 253 253 252 250 250 252 255 271 256 253 246 198 157 146 273 295 303 320 242 156 110 95 90 76
30 29 14 16 338 309 299 299 284 284 283 291 286 290 287 276 273 262 274 279 278 272 270 264 263 263 261 257 250 253 253 254 251 250 251 251 256 257 254 254 248 265 293 277 274 269 278 261 231 158 117 112 97 84
43 34 40 38 6 347 320 310 295 300 290 296 299 314 282 276 270 271 271 274 277 271 265 261 254 265 261 254 256 255 254 252 257 250 248 255 249 248 253 250 255 266 267 272 266 265 264 206 193 174 150 132 114 94
48 56 54 50 70 34 348 317 302 297 288 306 280 279 276 278 282 293 277 272 269 268 264 257 253 254 267 252 253 255 255 254 255 252 254 243 243 246 247 250 262 261 260 255 261 256 196 195 185 168 154 136 117 84
61 70 101 116 120 127 129 272 274 309 98 273 270 270 288 90 278 275 268 263 264 262 261 257 244 246 251 255 251 256 258 256 251 248 245 243 241 241 243 245 258 257 253 253 250 230 218 202 184 165 144 127 103 71
75 84 89 108 122 139 153 106 110 82 270 255 267 278 273 268 274 265 264 266 262 258 257 252 245 239 249 265 253 258 260 262 255 255 243 240 245 248 241 240 251 254 251 247 254 223 213 197 178 163 153 171 87 73
62 79 86 84 80 87 97 104 87 31 267 247 250 254 270 270 262 261 258 259 258 263 255 250 245 242 242 254 255 256 262 259 266 252 241 243 247 245 246 239 241 249 251 251 247 254 241 178 171 178 192 213 92 32
35 47 110 105 94 96 103 112 107 188 213 232 233 249 261 269 270 267 258 258 248 248 256 254 248 242 240 242 249 250 249 262 250 248 243 253 245 256 249 236 236 241 239 242 244 257 285 218 195 239 238 268 327 336
54 41 84 111 109 124 125 124 176 195 200 210 224 232 220 220 238 261 262 262 256 264 257 252 245 241 240 249 248 252 258 255 256 248 250 253 253 249 238 238 233 234 232 231 232 241 274 242 214 202 275 314 345 9
95 117 132 108 120 136 139 146 169 193 190 200 208 215 226 229 228 232 247 252 262 262 252 249 247 243 245 247 245 242 250 253 245 266 261 261 241 246 240 229 218 220 213 214 219 211 242 241 251 258 283 303 341 5
84 111 72 133 124 131 148 152 147 173 190 210 216 212 219 229 231 238 232 233 242 242 237 236 233 242 250 242 238 238 239 261 259 262 264 268 253 249 239 215 190 189 191 191 187 194 202 245 252 260 273 291 321 354
85 114 126 115 111 106 134 144 172 182 188 200 213 221 232 239 239 242 231 255 215 223 227 244 253 241 240 243 235 239 255 249 268 262 261 260 256 243 232 211 207 198 189 182 173 171 184 192 191 264 275 304 323 329
95 124 126 139 136 121 135 152 189 203 205 217 224 232 238 241 238 235 241 239 240 236 240 243 239 239 236 249 251 250 259 257 255 261 271 255 249 240 227 206 197 195 194 193 196 203 194 183 227 252 255 271 312 320
185 145 142 141 139 158 163 184 191 199 207 224 224 221 227 225 232 235 243 251 242 234 234 234 237 245 250 255 259 254 258 261 261 262 257 245 240 232 211 201 198 193 193 197 208 224 249 252 301 266 259 273 299 306
81 108 119 128 141 172 174 174 178 183 193 196 215 224 209 225 228 233 234 244 229 229 235 244 248 253 258 256 254 250 251 255 257 255 250 239 233 225 217 184 186 199 207 205 196 199 269 288 285 270 259 280 294 313
100 111 115 126 121 136 177 192 188 204 189 187 197 181 196 206 215 224 231 226 234 245 250 248 246 246 245 246 251 253 258 252 252 248 237 229 213 207 198 197 197 198 217 225 274 262 275 299 298 313 317 307 318 318
100 111 110 118 111 111 116 155 148 167 156 160 169 176 196 206 221 227 223 239 244 253 254 248 250 253 258 259 253 250 250 246 241 233 226 220 223 211 196 210 213 213 231 255 234 139 273 298 298 302 309 314 323 326
104 107 105 122 118 105 114 114 129 142 142 150 170 188 201 217 229 229 227 237 238 237 238 239 248 244 250 237 217 235 238 248 247 237 210 210 194 192 196 201 222 232 245 273 279 342 324 311 328 321 320 321 318 317
105 111 111 101 107 116 113 124 120 116 136 158 171 189 197 210 210 214 213 226 236 233 229 235 238 239 241 240 228 219 201 94 140 152 188 89 152 198 214 233 241 248 252 270 316 298 307 307 310 320 328 324 323 322
121 107 107 119 111 117 136 154 127 120 124 147 197 196 202 205 201 197 211 226 218 210 210 207 211 219 233 168 66 10 213 66 102 153 193 67 65 9 255 258 302 312 310 312 317 328 335 337 334 328 322 323 328 323
116 119 98 104 114 118 122 128 135 143 126 128 158 192 196 184 181 191 197 190 185 173 176 179 179 181 181 163 134 87 6 11 33 39 354 331 346 359 0 352 354 348 332 359 354 343 336 332 329 327 332 332 335 330
92 101 282 55 71 96 114 131 135 150 165 181 165 182 212 210 183 181 198 182 187 203 202 203 166 151 211 286 357 21 23 18 14 24 23 29 27 13 14 11 358 351 350 342 353 359 351 343 346 341 8 355 349 331
68 20 22 360 1 54 87 129 146 130 169 139 58 176 212 191 169 184 181 172 178 172 189 192 27 6 11 18 19 9 17 23 23 21 17 9 4 4 9 6 1 356 3 357 340 344 342 343 342 341 346 341 337 348
14 28 30 17 4 355 13 36 22 54 52 58 65 64 55 38 322 180 239 256 304 347 326 334 7 18 23 18 4 357 353 349 345 341 354 359 356 352 347 344 344 343 344 346 353 2 344 332 328 323 324 325 324 328
37 9 10 26 27 34 37 30 47 41 40 43 44 47 43 47 3 276 28 33 283 342 15 2 7 3 352 353 348 358 4 357 354 351 350 353 349 347 333 326 323 321 320 321 320 320 332 341 339 336 328 322 319 318
36 8 12 13 15 30 61 38 40 47 52 45 44 50 61 33 13 3 333 312 33 11 349 339 6 357 353 2 15 16 15 9 358 350 342 342 339 330 320 320 328 325 323 324 323 325 326 324 321 318 315 314 314 314
248 212 209 203 151 182 234 260 334 352 5 3 355 352 4 11 6 10 15 353 355 358 351 6 13 13 13 13 19 17 11 10 11 8 2 356 350 339 331 326 328 326 325 325 326 326 327 328 325 322 322 321 318 319